Satellite: NOAA-11
Catalog number: 19531
Epoch time:      09091.83383846
Element set:    0569
Inclination:      098.7817 deg
RA of node:       182.9690 deg
Eccentricity:    0.0011277
Arg of perigee:   330.2770 deg
Mean anomaly:     029.7763 deg
Mean motion:   14.14891083 rev/day
Decay rate:      -1.68e-06 rev/day^2
Epoch rev:           05872
Checksum:              339

Satellite: NOAA-12
Catalog number: 21263
Epoch time:      09091.95478780
Element set:    0085
Inclination:      098.7736 deg
RA of node:       099.9771 deg
Eccentricity:    0.0012827
Arg of perigee:   011.6344 deg
Mean anomaly:     348.5125 deg
Mean motion:   14.25572256 rev/day
Decay rate:        1.7e-07 rev/day^2
Epoch rev:           92953
Checksum:              332

Satellite: MET-3/5
Catalog number: 21655
Epoch time:      09091.95222198
Element set:    0715
Inclination:      082.5491 deg
RA of node:       260.3520 deg
Eccentricity:    0.0014241
Arg of perigee:   016.0670 deg
Mean anomaly:     344.0901 deg
Mean motion:   13.17019171 rev/day
Decay rate:        5.1e-07 rev/day^2
Epoch rev:           84759
Checksum:              278

Satellite: MET-2/21
Catalog number: 22782
Epoch time:      09092.53866945
Element set:     420
Inclination:      082.5461 deg
RA of node:       242.0073 deg
Eccentricity:    0.0021871
Arg of perigee:   195.5279 deg
Mean anomaly:     164.5209 deg
Mean motion:   13.83634261 rev/day
Decay rate:        1.8e-07 rev/day^2
Epoch rev:           78714
Checksum:              310

Satellite: OKEAN-4
Catalog number: 23317
Epoch time:      09091.70496727
Element set:     869
Inclination:      082.5398 deg
RA of node:       045.8531 deg
Eccentricity:    0.0020395
Arg of perigee:   256.5859 deg
Mean anomaly:     103.3095 deg
Mean motion:   14.82684410 rev/day
Decay rate:        8.8e-07 rev/day^2
Epoch rev:           78103
Checksum:              329

Satellite: NOAA-14
Catalog number: 23455
Epoch time:      09091.73623553
Element set:    0567
Inclination:      098.9116 deg
RA of node:       169.6728 deg
Eccentricity:    0.0010040
Arg of perigee:   051.4729 deg
Mean anomaly:     308.7343 deg
Mean motion:   14.13759809 rev/day
Decay rate:      -1.74e-06 rev/day^2
Epoch rev:           73512
Checksum:              317

Satellite: NOAA-15
Catalog number: 25338
Epoch time:      09091.85639211
Element set:    0874
Inclination:      098.5818 deg
RA of node:       082.7532 deg
Eccentricity:    0.0009620
Arg of perigee:   281.9728 deg
Mean anomaly:     078.0365 deg
Mean motion:   14.24752193 rev/day
Decay rate:       1.42e-06 rev/day^2
Epoch rev:           56590
Checksum:              329

Satellite: RESURS
Catalog number: 25394
Epoch time:      09091.93253500
Element set:    0198
Inclination:      098.3508 deg
RA of node:       128.1353 deg
Eccentricity:    0.0002458
Arg of perigee:   071.7876 deg
Mean anomaly:     288.3571 deg
Mean motion:   14.24181038 rev/day
Decay rate:       -3.3e-07 rev/day^2
Epoch rev:           55754
Checksum:              307

Satellite: FENGYUN1
Catalog number: 25730
Epoch time:      09091.95882881
Element set:    0763
Inclination:      098.7520 deg
RA of node:       064.4157 deg
Eccentricity:    0.0023136
Arg of perigee:   074.6353 deg
Mean anomaly:     285.7372 deg
Mean motion:   14.07958928 rev/day
Decay rate:       5.45e-06 rev/day^2
Epoch rev:           50959
Checksum:              341

Satellite: OKEAN-0
Catalog number: 25860
Epoch time:      09091.84791224
Element set:    0640
Inclination:      097.7807 deg
RA of node:       076.0877 deg
Eccentricity:    0.0001849
Arg of perigee:   071.8098 deg
Mean anomaly:     288.3310 deg
Mean motion:   14.73565190 rev/day
Decay rate:        3.0e-07 rev/day^2
Epoch rev:           52190
Checksum:              312

Satellite: NOAA-16
Catalog number: 26536
Epoch time:      09091.86180193
Element set:    0348
Inclination:      099.1770 deg
RA of node:       093.6841 deg
Eccentricity:    0.0011139
Arg of perigee:   132.7945 deg
Mean anomaly:     227.4172 deg
Mean motion:   14.12512396 rev/day
Decay rate:      -1.83e-06 rev/day^2
Epoch rev:           43952
Checksum:              314

Satellite: NOAA-17
Catalog number: 27453
Epoch time:      09091.76661989
Element set:    0357
Inclination:      098.4908 deg
RA of node:       153.4418 deg
Eccentricity:    0.0011442
Arg of perigee:   351.7307 deg
Mean anomaly:     008.3690 deg
Mean motion:   14.24052716 rev/day
Decay rate:       1.90e-06 rev/day^2
Epoch rev:           35187
Checksum:              319

Satellite: NOAA-18
Catalog number: 28654
Epoch time:      09091.76053237
Element set:    0849
Inclination:      098.9018 deg
RA of node:       035.6152 deg
Eccentricity:    0.0013703
Arg of perigee:   216.5696 deg
Mean anomaly:     143.4551 deg
Mean motion:   14.11245477 rev/day
Decay rate:       2.37e-06 rev/day^2
Epoch rev:           19917
Checksum:              321

